[Date Prev][Date Next][Thread Prev][Thread Next] - [Date Index][Thread Index][Author Index]

2 Line ISS Keps 7-31



ISS
1 25544U 98067A   05212.35307071 -.00115202  00000-0 -87752-3 0   363
2 25544 051.6450 034.7383 0002233 187.7353 242.5992 15.71786999382632
----
Via the sarex mailing list at AMSAT.ORG courtesy of AMSAT-NA.
To unsubscribe, send "unsubscribe sarex" to Majordomo@amsat.org



AMSAT Top AMSAT Home